User: anonymous   Login
Location: D.A.R.C. Observatory
(36.7133°N, 120.8553°W)
Time: 07:09:21
(UTC-07:00)
Language:

USA 215 - Orbit

View from above orbital plane
View from above orbital plane
View from above satellite
View from above satellite

Ground track
Ground track

The orbit data is extracted from the following two-line orbital elements,

1 37162U 10046A   15105.90124715 0.00000000  00000-0  00000-0 0    04
2 37162 123.0021 233.5337 0005000 150.1082 209.8918 13.41465919    08
Epoch (UTC): 15 April 2015 21:37:47
Eccentricity: 0.0005000
inclination: 123.0021°
perigee height: 1100 km
apogee height: 1107 km
right ascension of ascending node: 233.5337°
argument of perigee: 150.1082°
revolutions per day: 13.41465919
mean anomaly at epoch: 209.8918°
orbit number at epoch: 0

The dashed part of the orbit path shows where the satellite is in the earth's shadow,  

DLR